Regional Weather Roundup
Issued by NWS Charleston, SC

Current Version | Previous Version | Text Only | Print | Product List | Glossary Off
Versions: 1 2 3 4 5 6 7 8 9 10 11 12 13 14 15 16 17 18 19 20 21 22 23 24 25 26 27 28 29 30 31 32 33 34 35 36 37 38 39 40 41 42 43 44 45 46 47 48 49 50

000
ASUS42 KCHS 180410
RWRCHS
REGIONAL WEATHER ROUNDUP
NATIONAL WEATHER SERVICE CHARLESTON SC
1100 PM EST WED DEC 17 2014

NOTE: "FAIR" INDICATES FEW OR NO CLOUDS BELOW 12,000 FEET WITH NO
SIGNIFICANT WEATHER AND/OR OBSTRUCTIONS TO VISIBILITY.

NOT ALL STATIONS ARE QUALITY CONTROLLED BY THE NATIONAL
WEATHER SERVICE. USE DATA WITH CAUTION...ESPECIALLY
DEWPOINT OBSERVATIONS.

SCZ027-030-031-034>040-042>050-180500-
...SOUTHEAST SOUTH CAROLINA...

CITY           SKY/WX    TMP DP  RH WIND       PRES   REMARKS
N CHARLESTON   PTCLDY    47  42  83 CALM      30.12S
WATERFRONT PRK   N/A     50 N/A N/A SW5         N/A
MOUNT PLEASANT FAIR      43  43 100 CALM      30.12S
PINOPOLIS        N/A     48  43  81 CALM      30.02R
MONCKS CORNER  FAIR      41  39  93 CALM      30.11S
SUMMERVILLE    FAIR      41  41 100 CALM      30.13
BEAUFORT MCAS  PTCLDY    44  41  89 SW5       30.12F
BEAUFORT ARPT  FAIR      45  45 100 CALM      30.12R
HILTON HEAD IS PTCLDY    46  45  93 CALM      30.14S
WALTERBORO     CLEAR     39 N/A N/A CALM      30.12S
ALLENDALE      FAIR      41  39  93 CALM      30.11S

...SOUTHERN MIDLANDS AND PEE DEE...

CITY           SKY/WX    TMP DP  RH WIND       PRES   REMARKS
GEORGETOWN     NOT AVBL
KINGSTREE      NOT AVBL
ORANGEBURG     CLEAR     41  38  89 CALM      30.11S
BARNWELL         N/A     37  36  93 CALM      30.12S
AIKEN          FAIR      37  37 100 CALM      30.14S
MANNING        NOT AVBL
COLUMBIA       PTCLDY    39  35  86 CALM      30.10S
SUMTER         CLEAR     41  37  84 SW2       30.09S
FLORENCE       PTCLDY    42  39  89 CALM      30.10S FOG
MYRTLE BEACH   CLEAR     46  39  76 W5        30.11F
N MYRTLE BEACH PTCLDY    43  41  93 CALM      30.10S

$$

GAZ063-065-086>088-099>101-113>116-118-119-134>141-150-180500-
...SOUTHEAST GEORGIA...

CITY           SKY/WX    TMP DP  RH WIND       PRES   REMARKS
SAVANNAH ARPT  MOCLDY    48  40  73 CALM      30.13S
HUNTER AAF     PTCLDY    45  43  92 CALM      30.11S
FORT STEWART   PTCLDY    42  40  91 CALM      30.12S
STATESBORO     CLEAR     39  39 100 CALM      30.13S
SYLVANIA       PTCLDY    40  40  99 CALM      30.13S
CLAXTON        FAIR      37  37 100 CALM      30.13F

...CSRA...CENTRAL AND FAR SOUTHEAST GEORGIA...

CITY           SKY/WX    TMP DP  RH WIND       PRES   REMARKS
THOMSON        CLEAR     42  40  94 W3        30.17S
AUGUSTA-BUSH   CLEAR     44  38  79 NW5       30.13R
AUGUSTA-DANIEL CLEAR     48  39  71 W6        30.13R
SWAINSBORO     FAIR      43  43 100 NW5       30.14S
VIDALIA        CLEAR     43  41  93 CALM      30.14S
EASTMAN        FAIR      39  39 100 CALM      30.17S
HAZLEHURST     FAIR      45  45 100 CALM      30.14S
ALMA           CLEAR     40  38  93 CALM      30.14F
WAYCROSS       CLEAR     46  44  94 CALM      30.15S
JESUP          FAIR      41  41 100 CALM      30.14S
BAXLEY         FAIR      43  41  93 CALM      30.13F
BRUNSWICK      CLEAR     45  43  93 CALM      30.15F
SAINT SIMONS   CLEAR     47  44  90 SW3       30.14F

$$

SCZ027-028-034-036>038-045-046-048>050-GAZ119-141-180500-
...LAKE AND SUPPLEMENTAL COASTAL OBSERVATIONS...

STATION/POSITION TIME  TEMP    WIND        PRES    WAVE   SWELL
                       AIR SEA DIR/SP/G            HT/PER HT/PER/DIR
                 (UTC) (F)     (DEG/KT/KT) (MB)    (FT/S) (FT/S/D)
UPR LAKE MARION  NOT AVBL
WINYAH BAY       0300   48     240/  2     1018.0F
LAKE MURRAY      0300   48     290/  1/  2 1019.0S
ACE BASIN NERRS  0300   44        CALM     1019.0F
FORT PULASKI     0400   49 56  200/  2/  4 1020.5S
SAPELO ISLAND    0300   47        CALM     1021.0R

$$

ANZ835-935-AMZ111-154-330-350-352-354-370-450-454-472-180500-
...C-MAN AND BUOY OBSERVATIONS...

STATION/POSITION TIME  TEMP    WIND        PRES    WAVE   SWELL
                       AIR SEA DIR/SP/G            HT/PER HT/PER/DIR
                 (UTC) (F)     (DEG/KT/KT) (MB)    (FT/S) (FT/S/D)
BUOY 41004       0400   61 73  280/  8/ 10 1019.4F   2/10   2/10
BUOY 41008       0400   57 58  270/  6/  6 1020.7S   1/11   2/100/11
FOLLY BEACH CMAN 0300   50     250/  5/  5 1020.3F
CAPERS NEARSHORE 0300   55     270/  8/ 10   N/A
FRIPP NEARSHORE  NOT AVBL


STATION/POSITION TIME  TEMP    WIND        PRES    WAVE   SWELL
                       AIR SEA DIR/SP/G            HT/PER HT/PER/DIR
                 (UTC) (F)     (DEG/KT/KT) (MB)    (FT/S) (FT/S/D)
5E ST. MARYS GA  0400      61                N/A     1/11
FRYING PAN BUOY  0400   60 65  270/ 10/ 12 1019.9R   2/10   2/110/10
BUOY 41025       0400   57                 1018.2R   3/ 7
CAPE LOOKOUT NC  0300   55     260/  8/  9 1018.3R
BUOY 41002       0338   68 72  280/  8/ 10 1019.4F   5/ 7   5/280/ 7
BUOY 41010       0400   70 76  280/ 10/ 14 1021.0R   3/ 5   3/300/ 5
ST AUGUSTINE FL  0400   56     260/  3/  3 1021.8S


$$



USA.gov is the U.S. government's official web portal to all federal, state and local government web resources and services.